Stations météo

réclame
Mon MeteoGroup
Lulea/Kallax, Suède (2186): Température de l'air & dewpoint: 16.04.2019 16:00:00 - 22.04.2019 16:00:00 (CEST)Lulea/Kallax, Suède (2186): Vitesse du vent & gusts: 16.04.2019 16:00:00 - 22.04.2019 16:00:00 (CEST)Lulea/Kallax, Suède (2186): Direction du vent: 16.04.2019 16:00:00 - 22.04.2019 16:00:00 (CEST)Lulea/Kallax, Suède (2186): reduced air pressure: 16.04.2019 16:00:00 - 22.04.2019 16:00:00 (CEST)Lulea/Kallax, Suède (2186): visibility: 16.04.2019 16:00:00 - 22.04.2019 16:00:00 (CEST)Lulea/Kallax, Suède (2186): Quantités de précipitations: 16.04.2019 16:00:00 - 22.04.2019 16:00:00 (CEST)
Date & Time tt [°C] td [°C] ff [km/h] ff [knt] fx [km/h] fx [knt] dd ppp [hPa] vv [km] rr [mm]
22.04.2019 16:00:00 8,2 3,2 11 6 22 12 SSW 1019,1 10 0,0
22.04.2019 15:00:00 5,7 2,3 9 5 22 12 SSE 1019,3 10 0,0
22.04.2019 14:00:00 7,6 2,1 13 7 22 12 SSE 1019,6 10 0,0
22.04.2019 13:00:00 8,9 2,0 15 8 22 12 S 1019,8 10 0,0
22.04.2019 12:00:00 10,1 0,7 13 7 22 12 S 1019,7 10 0,0
22.04.2019 11:00:00 9,6 1,2 9 5 14 8 S 1019,4 10 0,0
22.04.2019 10:00:00 8,4 2,2 8 4 14 8 ESE 1019,4 10 0,0
22.04.2019 09:00:00 8,6 0,8 8 4 7 4 WSW 1019,1 10 0,0
22.04.2019 08:00:00 6,6 2,1 0 0 4 2 N 1018,7 10 0,0
22.04.2019 07:00:00 3,2 1,4 0 0 4 2 N 1018,4 10 0,0
22.04.2019 06:00:00 1,2 -0,3 0 0 0 0 N 1018,0 10 0,0
22.04.2019 05:00:00 1,0 0,1 0 0 4 2 N 1017,6 10 0,0
22.04.2019 04:00:00 1,9 0,3 0 0 7 4 N 1017,4 10 0,0
22.04.2019 03:00:00 3,7 1,4 4 2 11 6 SW 1017,4 10 0,0
22.04.2019 02:00:00 4,2 1,7 2 1 14 8 WSW 1017,4 10 0,0
22.04.2019 01:00:00 5,4 2,6 8 4 14 8 WSW 1017,0 10 0,0
22.04.2019 00:00:00 5,5 2,7 11 6 14 8 WSW 1016,9 10 0,0
21.04.2019 23:00:00 6,3 2,7 9 5 18 10 WSW 1016,6 10 0,0
21.04.2019 22:00:00 7,3 3,2 8 4 14 8 WSW 1016,4 10 0,0
21.04.2019 21:00:00 7,5 3,2 8 4 18 10 SW 1016,4 10 0,0
21.04.2019 20:00:00 6,9 3,3 8 4 22 12 SW 1016,2 10 0,0
21.04.2019 19:00:00 6,9 3,3 9 5 25 14 WSW 1016,1 10 0,0
21.04.2019 18:00:00 7,1 3,3 15 8 22 12 SSW 1016,2 10 0,0
21.04.2019 17:00:00 7,2 2,9 9 5 14 8 SSW 1016,2 10 0,0
21.04.2019 16:00:00 7,5 3,0 15 8 22 12 S 1016,4 10 0,0
21.04.2019 15:00:00 6,8 2,9 11 6 22 12 S 1016,4 10 0,0
21.04.2019 14:00:00 6,6 3,6 9 5 22 12 S 1016,7 10 0,0
21.04.2019 13:00:00 7,1 3,5 8 4 14 8 S 1017,0 10 0,2
21.04.2019 12:00:00 7,5 1,8 8 4 14 8 SSW 1017,2 10 0,0
21.04.2019 11:00:00 7,9 1,3 5 3 14 8 SSW 1016,8 10 0,0
21.04.2019 10:00:00 7,7 0,7 8 4 11 6 S 1016,7 10 0,0
21.04.2019 09:00:00 6,6 0,1 5 3 11 6 SSW 1017,1 10 0,0
21.04.2019 08:00:00 6,2 -0,1 8 4 11 6 S 1017,3 10 0,0
21.04.2019 07:00:00 6,5 -0,3 8 4 11 6 SSW 1017,5 10 0,0
21.04.2019 06:00:00 6,4 -0,4 5 3 11 6 S 1017,8 10 0,0
21.04.2019 05:00:00 5,8 -0,1 4 2 11 6 S 1018,1 10 0,0
21.04.2019 04:00:00 5,1 0,3 2 1 7 4 S 1018,3 10 0,0
21.04.2019 03:00:00 3,6 0,8 2 1 4 2 SSE 1019,0 10 0,0
21.04.2019 02:00:00 2,6 0,3 0 0 4 2 N 1019,6 10 0,0
21.04.2019 01:00:00 2,1 0,3 4 2 7 4 S 1020,3 10 0,0
21.04.2019 00:00:00 2,8 0,9 4 2 7 4 SSE 1021,2 10 0,0
20.04.2019 23:00:00 2,5 0,4 2 1 4 2 SSE 1021,7 10 0,0
20.04.2019 22:00:00 2,4 0,3 4 2 4 2 SSE 1022,3 10 0,0
20.04.2019 21:00:00 3,3 1,0 4 2 11 6 S 1022,9 10 0,0
20.04.2019 20:00:00 4,4 1,3 11 6 18 10 S 1023,4 10 0,0
20.04.2019 19:00:00 5,8 1,3 11 6 18 10 S 1023,6 10 0,0
20.04.2019 18:00:00 8,5 1,4 11 6 18 10 S 1024,5 10 0,0
20.04.2019 17:00:00 8,6 1,7 13 7 22 12 S 1025,3 10 0,0
20.04.2019 16:00:00 10,5 1,8 11 6 18 10 S 1025,7 10 0,0
20.04.2019 15:00:00 11,5 2,8 9 5 14 8 S 1026,4 10 0,0
20.04.2019 14:00:00 11,4 3,7 9 5 14 8 SE 1026,9 10 0,0
20.04.2019 13:00:00 12,6 3,0 2 1 11 6 - 1027,3 10 0,0
20.04.2019 12:00:00 11,7 3,7 5 3 14 8 WSW 1027,7 10 0,0
20.04.2019 11:00:00 9,8 4,0 2 1 11 6 - 1028,1 10 0,0
20.04.2019 10:00:00 7,9 4,3 0 0 0 0 N 1028,2 10 0,0
20.04.2019 09:00:00 6,3 4,3 0 0 4 2 N 1028,5 10 0,0
20.04.2019 08:00:00 5,3 4,0 0 0 7 4 N 1028,6 10 0,0
20.04.2019 07:00:00 4,6 3,9 0 0 4 2 N 1029,1 10 0,0
20.04.2019 06:00:00 3,7 3,3 0 0 4 2 N 1029,1 10 0,0
20.04.2019 05:00:00 3,2 2,9 0 0 0 0 N 1029,2 7 0,0
20.04.2019 04:00:00 4,4 4,3 0 0 0 0 N 1029,4 9 0,0
20.04.2019 03:00:00 3,4 3,0 0 0 0 0 N 1029,8 10 0,0
20.04.2019 02:00:00 3,0 2,7 0 0 0 0 N 1030,2 4,4 0,0
20.04.2019 01:00:00 3,5 3,1 0 0 0 0 N 1030,8 3,0 0,1
20.04.2019 00:00:00 3,6 3,2 0 0 4 2 N 1031,0 2,8 0,2
19.04.2019 23:00:00 4,2 3,6 0 0 4 2 N 1031,3 9 0,3
19.04.2019 22:00:00 4,6 4,0 0 0 4 2 N 1031,5 10 0,3
19.04.2019 21:00:00 4,5 3,8 0 0 0 0 N 1031,6 10 0,3
19.04.2019 20:00:00 6,0 3,5 0 0 11 6 N 1031,7 10 0,3
19.04.2019 19:00:00 7,2 2,5 0 0 11 6 N 1031,8 10 0,0
19.04.2019 18:00:00 7,1 1,6 5 3 14 8 SSE 1031,9 10 0,0
19.04.2019 17:00:00 8,2 2,4 5 3 7 4 SE 1032,0 10 0,0
19.04.2019 16:00:00 10,3 2,2 2 1 14 8 - 1032,1 10 0,0
19.04.2019 15:00:00 10,1 2,7 9 5 22 12 NNW 1032,3 10 0,0
19.04.2019 14:00:00 9,4 2,5 13 7 18 10 NW 1032,5 10 0,0
19.04.2019 13:00:00 8,9 2,0 9 5 18 10 NNW 1032,6 10 0,0
19.04.2019 12:00:00 8,3 2,1 11 6 18 10 NW 1032,6 10 0,0
19.04.2019 11:00:00 7,4 1,9 9 5 14 8 NNW 1032,7 10 0,0
19.04.2019 10:00:00 6,1 1,4 11 6 18 10 NW 1032,4 10 0,0
19.04.2019 09:00:00 6,6 1,7 11 6 22 12 NNW 1032,1 10 0,0
19.04.2019 08:00:00 5,7 1,0 11 6 18 10 NW 1032,0 10 0,0
19.04.2019 07:00:00 5,8 0,4 13 7 18 10 NW 1031,7 10 0,0
19.04.2019 06:00:00 5,6 0,0 13 7 18 10 NW 1031,4 10 0,0
19.04.2019 05:00:00 5,7 -0,4 15 8 22 12 WNW 1031,4 10 0,0
19.04.2019 04:00:00 6,1 -0,4 9 5 18 10 NW 1031,4 10 0,0
19.04.2019 03:00:00 5,4 -0,9 9 5 11 6 WNW 1031,7 10 0,0
19.04.2019 02:00:00 5,3 -1,0 5 3 22 12 NW 1031,7 10 0,0
19.04.2019 01:00:00 7,1 -1,3 13 7 18 10 W 1031,8 10 0,0
19.04.2019 00:00:00 6,5 -2,7 2 1 22 12 W 1031,9 10 0,0
18.04.2019 23:00:00 7,6 -2,7 21 11 25 14 W 1032,0 10 0,0
18.04.2019 22:00:00 8,0 -3,5 15 8 22 12 W 1031,8 10 0,0
18.04.2019 21:00:00 4,4 -0,8 0 0 4 2 N 1031,8 10 0,0
18.04.2019 20:00:00 3,1 -0,5 2 1 14 8 - 1031,8 10 0,0
18.04.2019 19:00:00 3,7 -0,7 2 1 7 4 - 1031,7 10 0,0
18.04.2019 18:00:00 4,3 -0,5 5 3 14 8 SE 1032,0 10 0,0
18.04.2019 17:00:00 4,5 -1,1 11 6 14 8 SSE 1032,0 10 0,0
18.04.2019 16:00:00 4,3 -1,7 11 6 18 10 SSE 1032,4 10 0,0
18.04.2019 15:00:00 4,7 -1,2 11 6 22 12 SSE 1032,8 10 0,0
18.04.2019 14:00:00 4,7 -1,1 13 7 18 10 SSE 1033,2 10 0,0
18.04.2019 13:00:00 5,1 -1,8 13 7 22 12 SE 1033,7 10 0,0
18.04.2019 12:00:00 5,4 -1,3 13 7 22 12 S 1034,2 10 0,0
18.04.2019 11:00:00 5,3 -2,3 9 5 18 10 SSE 1034,3 10 0,0
18.04.2019 10:00:00 5,5 -1,7 8 4 14 8 SSE 1034,6 10 0,0
18.04.2019 09:00:00 3,0 -1,2 8 4 7 4 SE 1034,7 10 0,0
18.04.2019 08:00:00 1,9 -2,2 4 2 7 4 SE 1035,0 10 0,0
18.04.2019 07:00:00 0,9 -3,2 0 0 0 0 N 1035,0 10 0,0
18.04.2019 06:00:00 -3,5 -4,8 0 0 0 0 N 1035,0 10 0,0
18.04.2019 05:00:00 -3,6 -5,0 0 0 4 2 N 1035,0 10 0,0
18.04.2019 04:00:00 -3,6 -5,0 0 0 4 2 N 1035,1 10 0,0
18.04.2019 03:00:00 -3,0 -4,6 0 0 4 2 N 1035,0 10 0,0
18.04.2019 02:00:00 -2,1 -4,1 2 1 4 2 NW 1035,3 10 0,0
18.04.2019 01:00:00 -1,7 -3,9 0 0 0 0 N 1035,2 10 0,0
18.04.2019 00:00:00 -1,4 -3,8 0 0 0 0 N 1035,1 10 0,0
17.04.2019 23:00:00 -0,6 -3,5 0 0 0 0 N 1035,1 10 0,0
17.04.2019 22:00:00 0,4 -3,2 0 0 4 2 N 1034,9 10 0,0
17.04.2019 21:00:00 2,1 -3,2 2 1 11 6 - 1034,8 10 0,0
17.04.2019 20:00:00 4,9 -2,9 0 0 14 8 N 1034,5 10 0,0
17.04.2019 19:00:00 6,4 -2,7 4 2 11 6 - 1034,5 10 0,0
17.04.2019 18:00:00 6,5 -1,6 4 2 11 6 SSE 1034,4 10 0,0
17.04.2019 17:00:00 10,0 -4,4 4 2 11 6 - 1034,6 10 0,0
17.04.2019 16:00:00 9,9 -3,8 2 1 11 6 - 1034,8 10 0,0
17.04.2019 15:00:00 9,5 -3,4 8 4 14 8 N 1034,9 10 0,0
17.04.2019 14:00:00 8,7 -2,9 5 3 14 8 N 1035,1 10 0,0
17.04.2019 13:00:00 8,3 -2,1 8 4 22 12 N 1035,1 10 0,0
17.04.2019 12:00:00 7,3 -1,1 13 7 22 12 N 1035,3 10 0,0
17.04.2019 11:00:00 6,3 -0,9 11 6 22 12 NNW 1035,2 10 0,0
17.04.2019 10:00:00 4,6 -1,2 11 6 22 12 N 1035,0 10 0,0
17.04.2019 09:00:00 2,9 -1,8 11 6 22 12 N 1034,9 10 0,0
17.04.2019 08:00:00 0,6 -2,1 8 4 18 10 NNW 1034,6 10 0,0
17.04.2019 07:00:00 -0,7 -2,9 5 3 11 6 N 1034,4 10 0,0
17.04.2019 06:00:00 -1,0 -3,2 8 4 14 8 N 1034,1 10 0,0
17.04.2019 05:00:00 -3,2 -4,5 8 4 11 6 N 1034,1 10 0,0
17.04.2019 04:00:00 -2,2 -3,2 5 3 14 8 N 1033,8 10 0,0
17.04.2019 03:00:00 -2,8 -3,6 8 4 11 6 N 1033,6 10 0,0
17.04.2019 02:00:00 -2,3 -3,1 0 0 0 0 N 1033,3 10 0,0
17.04.2019 01:00:00 -1,4 -2,2 0 0 4 2 N 1033,5 10 0,0
17.04.2019 00:00:00 -0,7 -2,3 4 2 7 4 SSE 1033,8 10 0,0
16.04.2019 23:00:00 -0,3 -2,2 0 0 7 4 N 1033,9 10 0,0
16.04.2019 22:00:00 0,5 -1,7 4 2 14 8 S 1034,1 10 0,0
16.04.2019 21:00:00 1,4 -1,5 9 5 14 8 SSE 1034,1 10 0,0
16.04.2019 20:00:00 2,7 -1,7 8 4 14 8 SSE 1034,1 10 0,0
16.04.2019 19:00:00 3,6 -1,4 8 4 14 8 S 1034,2 10 0,0
16.04.2019 18:00:00 4,4 -1,4 9 5 14 8 SE 1034,5 10 0,0
16.04.2019 17:00:00 5,5 -2,1 9 5 14 8 SE 1034,9 10 0,0
16.04.2019 16:00:00 5,9 -2,2 11 6 14 8 SSE 1035,3 10 0,0

tt = Température de l'air
td = dewpoint
ff = Vitesse du vent
fx = gusts
dd = Direction du vent
ppp = reduced air pressure
vv = visibility
rr = Quantités de précipitations

stations d'obs. à proximité